Volver al catálogo

SL-8 DEB

ActivoPO
NORAD 29288·DEBRIS·🇷🇺 Russia

Lanzado Dec 17, 1981 desde Plesetsk Cosmodrome

Loading…

Próximos Pases (próximas 24 horas)

TLE

EnvejeciendoSource: Space-Track

Época: Sep 10, 2026, 14:17 UTC

1 29288U 81120S   26253.59518654 -.00000061  00000-0 -79644-3 0  9994
2 29288  82.9674  22.8631 0008776 313.7119  46.3214 12.06822556522738

Sigue SL-8 DEB en tiempo real con AllMySat

Download on the App Store